TimeEST,TemperatureF,Dew PointF,Humidity,Sea Level PressureIn,VisibilityMPH,Wind Direction,Wind SpeedMPH,Gust SpeedMPH,PrecipitationIn,Events,Conditions,WindDirDegrees,DateUTC
12:53 AM,32.0,30.0,92,30.12,2.5,North,6.9,-,0.02,Snow,Light Snow,360,2013-12-02 05:53:00
1:21 AM,32.0,30.0,92,30.11,1.8,North,5.8,-,0.03,Snow,Light Snow,10,2013-12-02 06:21:00
1:53 AM,32.0,30.0,92,30.12,1.8,NNE,5.8,-,0.06,Snow,Light Snow,20,2013-12-02 06:53:00
2:10 AM,32.0,30.0,92,30.11,3.0,North,5.8,-,0.01,Snow,Light Snow,10,2013-12-02 07:10:00
2:53 AM,32.0,30.0,92,30.10,3.0,North,6.9,-,0.05,Snow,Light Snow,10,2013-12-02 07:53:00
3:53 AM,32.0,30.0,92,30.09,3.0,NNE,6.9,-,0.04,Snow,Light Snow,20,2013-12-02 08:53:00
4:23 AM,32.0,30.0,92,30.07,2.0,North,8.1,-,0.02,Snow,Light Snow,10,2013-12-02 09:23:00
4:53 AM,32.0,30.0,92,30.07,2.0,NNE,10.4,-,0.03,Snow,Light Snow,20,2013-12-02 09:53:00
5:25 AM,32.0,30.9,96,30.06,2.0,NNE,8.1,-,0.01,Rain-Snow,Light Rain,30,2013-12-02 10:25:00
5:35 AM,33.1,30.9,92,30.06,3.0,NE,8.1,-,0.02,Rain,Light Rain,50,2013-12-02 10:35:00
5:44 AM,33.1,30.9,92,30.06,3.0,NE,8.1,-,0.03,Rain,Light Rain,40,2013-12-02 10:44:00
5:53 AM,33.1,30.9,92,30.06,5.0,NNE,8.1,-,0.03,Rain,Light Rain,30,2013-12-02 10:53:00
6:08 AM,33.1,30.9,92,30.06,5.0,NNE,6.9,-,0.01,Rain,Light Rain,20,2013-12-02 11:08:00
6:24 AM,33.1,30.9,92,30.06,5.0,North,8.1,-,0.01,Rain,Light Rain,10,2013-12-02 11:24:00
6:42 AM,33.1,30.9,92,30.06,5.0,North,8.1,-,0.02,Rain-Snow,Light Rain,10,2013-12-02 11:42:00
6:53 AM,33.1,30.9,92,30.06,2.0,North,9.2,-,0.02,Rain-Snow,Light Rain,360,2013-12-02 11:53:00
7:29 AM,32.0,30.9,96,30.05,3.0,North,8.1,-,0.02,Snow,Light Snow,10,2013-12-02 12:29:00
7:50 AM,32.0,30.2,93,30.05,3.0,North,8.1,-,0.02,Snow,Light Snow,360,2013-12-02 12:50:00
7:53 AM,32.0,30.9,96,30.06,3.0,North,8.1,-,0.02,Snow,Light Snow,10,2013-12-02 12:53:00
8:53 AM,32.0,30.0,92,30.06,6.0,North,10.4,-,0.00,Rain,Light Freezing Rain,10,2013-12-02 13:53:00
9:07 AM,32.0,30.0,92,30.05,3.0,North,9.2,-,0.00,,Light Drizzle,10,2013-12-02 14:07:00
9:43 AM,33.1,30.9,92,30.04,6.0,North,8.1,-,0.00,Snow,Light Snow,10,2013-12-02 14:43:00
9:53 AM,33.1,30.9,92,30.04,6.0,NNE,10.4,-,0.00,Snow,Light Snow,20,2013-12-02 14:53:00
10:05 AM,33.1,30.9,92,30.03,9.0,NNE,9.2,-,0.00,,Overcast,20,2013-12-02 15:05:00
10:53 AM,33.1,30.9,92,30.03,9.0,North,8.1,-,0.00,,Overcast,350,2013-12-02 15:53:00
11:53 AM,34.0,32.0,92,30.00,5.0,NNE,9.2,-,0.00,,Light Drizzle,20,2013-12-02 16:53:00
12:53 PM,34.0,32.0,92,30.00,6.0,North,8.1,-,0.00,,Light Drizzle,10,2013-12-02 17:53:00
1:03 PM,34.0,32.0,92,29.99,1.2,North,9.2,-,0.00,,Overcast,10,2013-12-02 18:03:00
1:18 PM,34.0,32.0,92,29.99,0.8,NNE,8.1,-,0.00,,Overcast,20,2013-12-02 18:18:00
1:53 PM,34.0,32.0,92,29.99,0.5,NNE,8.1,-,0.00,Fog,Fog,30,2013-12-02 18:53:00
2:53 PM,34.0,33.1,96,29.99,0.5,North,5.8,-,0.00,,Light Drizzle,10,2013-12-02 19:53:00
3:05 PM,34.0,32.0,92,29.98,0.2,North,4.6,-,0.00,Fog,Fog,10,2013-12-02 20:05:00
3:53 PM,33.1,32.0,96,29.98,0.2,North,6.9,-,0.00,Fog,Fog,10,2013-12-02 20:53:00
4:53 PM,33.1,32.0,96,29.97,0.2,North,6.9,-,N/A,,Mist,10,2013-12-02 21:53:00
5:53 PM,33.1,32.0,96,29.98,0.2,NNW,4.6,-,N/A,Fog,Fog,340,2013-12-02 22:53:00
6:53 PM,33.1,32.0,96,29.99,0.2,North,5.8,-,N/A,Fog,Fog,350,2013-12-02 23:53:00
7:06 PM,33.1,32.0,96,29.98,0.2,North,5.8,-,N/A,Fog,Fog,350,2013-12-03 00:06:00
7:19 PM,33.1,32.0,96,29.98,0.2,North,5.8,-,N/A,Fog,Fog,350,2013-12-03 00:19:00
7:53 PM,33.1,32.0,96,29.98,0.2,North,4.6,-,N/A,Fog,Fog,10,2013-12-03 00:53:00
8:53 PM,33.1,32.0,96,29.97,0.2,NNE,4.6,-,N/A,Fog,Fog,20,2013-12-03 01:53:00
9:53 PM,33.1,33.1,100,29.96,0.2,North,3.5,-,N/A,Fog,Fog,10,2013-12-03 02:53:00
10:53 PM,33.1,32.0,96,29.97,0.2,North,4.6,-,N/A,Fog,Fog,10,2013-12-03 03:53:00
11:53 PM,33.1,32.0,96,29.95,0.2,NE,3.5,-,N/A,,Overcast,50,2013-12-03 04:53:00